Kankakee, IL

8:05 AM CDT on April 25, 2017 (GMT -0500)
Greater Kankakee

Weather History for KIKK - February, 2014

Change the Weather History Date:

Wednesday, February 19, 2014

  Actual Average Record
Temperature  
Mean Temperature 34 °F -  
Max Temperature 37 °F 39 °F 63 °F (2016)
Min Temperature 30 °F 22 °F -9 °F (1979)
Degree Days  
Heating Degree Days 32    
Moisture  
Dew Point 29 °F    
Average Humidity 85    
Maximum Humidity 92    
Minimum Humidity 75    
Precipitation  
Precipitation 0.00 in - - ()
Sea Level Pressure  
Sea Level Pressure 29.90 in    
Wind  
Wind Speed 9 mph (SW)    
Max Wind Speed 15 mph    
Max Gust Speed -    
Visibility 10 miles    
Events Rain    
Averages and records for this station are not official NWS values.
T = Trace of Precipitation, MM = Missing Value Source: NWS Daily Summary

Daily Weather History Graph

Daily Weather History Graph

Search for Another Location

Airport or City:

Trip Planner

Search our weather history database for the weather conditions in past years. The results will help you decide how hot, cold, wet, or windy it might be!

Date:

Astronomy

Feb. 19, 2014 Rise Set
Actual Time 6:40 AM CST 5:30 PM CST
Civil Twilight 6:12 AM CST 5:58 PM CST
Nautical Twilight 5:40 AM CST 6:30 PM CST
Astronomical Twilight 5:08 AM CST 7:02 PM CST
Moon 10:26 PM CST (2/19) 8:43 AM CST (2/19)
Length of Visible Light 11h 46m
Length of Day
10h 50m
Waning Gibbous, 79% of the Moon is Illuminated
Feb 19
Waning Gibbous
Feb 22
Last Quarter
Mar 1
New
Mar 8
First Quarter
Mar 16
Full

Hourly Weather History & Observations

Time (CST) Temp. Windchill Dew Point Humidity Pressure Visibility Wind Dir Wind Speed Gust Speed Precip Events Conditions
12:15 AM 36.1 °F 28.2 °F 31.1 °F 82% 29.68 in 10.0 mi SW 11.5 mph - N/A   Clear
12:35 AM 36.0 °F 27.5 °F 30.9 °F 82% 29.68 in 10.0 mi WSW 12.7 mph - N/A   Clear
12:55 AM 37.2 °F 28.7 °F 30.9 °F 78% 29.67 in 10.0 mi WSW 13.8 mph - N/A   Clear
1:15 AM 37.8 °F 29.4 °F 30.4 °F 75% 29.68 in 10.0 mi West 13.8 mph - N/A   Clear
1:35 AM 36.3 °F 28.4 °F 30.0 °F 78% 29.68 in 10.0 mi West 11.5 mph - N/A   Clear
1:55 AM 35.1 °F 26.9 °F 29.5 °F 80% 29.69 in 10.0 mi West 11.5 mph - N/A   Clear
2:15 AM 33.6 °F 25.0 °F 28.9 °F 83% 29.69 in 10.0 mi West 11.5 mph - N/A   Clear
2:35 AM 32.0 °F 23.6 °F 28.0 °F 85% 29.70 in 10.0 mi West 10.4 mph - N/A   Clear
2:55 AM 31.6 °F 22.6 °F 27.5 °F 85% 29.70 in 10.0 mi West 11.5 mph - N/A   Clear
3:15 AM 32.0 °F 21.6 °F 27.5 °F 83% 29.71 in 10.0 mi West 15.0 mph - N/A   Clear
3:35 AM 32.4 °F 23.0 °F 27.7 °F 83% 29.71 in 10.0 mi WNW 12.7 mph - N/A   Clear
3:55 AM 32.0 °F 24.2 °F 27.5 °F 83% 29.73 in 10.0 mi West 9.2 mph - N/A   Clear
4:15 AM 31.8 °F 24.6 °F 27.3 °F 83% 29.74 in 10.0 mi West 8.1 mph - N/A   Clear
4:35 AM 30.2 °F 19.8 °F 26.4 °F 86% 29.76 in 10.0 mi West 13.8 mph - N/A   Clear
4:55 AM 31.5 °F 21.4 °F 26.8 °F 83% 29.78 in 10.0 mi West 13.8 mph - N/A   Clear
5:15 AM 31.5 °F 23.5 °F 26.8 °F 83% 29.79 in 10.0 mi West 9.2 mph - N/A   Clear
5:35 AM 32.0 °F 23.6 °F 28.2 °F 86% 29.80 in 10.0 mi West 10.4 mph - N/A   Mostly Cloudy
5:55 AM 32.9 °F 24.1 °F 29.1 °F 86% 29.81 in 10.0 mi West 11.5 mph - N/A   Overcast
6:15 AM 32.2 °F 24.4 °F 28.9 °F 88% 29.83 in 10.0 mi West 9.2 mph - N/A   Mostly Cloudy
6:35 AM 32.0 °F 23.6 °F 28.9 °F 88% 29.84 in 10.0 mi West 10.4 mph - N/A   Clear
6:55 AM 32.0 °F 23.6 °F 28.4 °F 87% 29.85 in 10.0 mi West 10.4 mph - N/A   Clear
7:15 AM 30.6 °F 23.1 °F 27.5 °F 88% 29.86 in 10.0 mi West 8.1 mph - N/A   Clear
7:35 AM 31.1 °F 22.4 °F 27.7 °F 87% 29.88 in 10.0 mi West 10.4 mph - N/A   Clear
7:55 AM 30.7 °F 22.6 °F 27.5 °F 88% 29.88 in 10.0 mi West 9.2 mph - N/A   Clear
8:15 AM 31.6 °F 25.1 °F 28.0 °F 87% 29.89 in 10.0 mi West 6.9 mph - N/A   Clear
8:35 AM 32.0 °F 28.7 °F 28.2 °F 86% 29.89 in 10.0 mi WNW 3.5 mph - N/A   Clear
8:55 AM 33.3 °F 27.1 °F 28.9 °F 84% 29.90 in 10.0 mi WSW 6.9 mph - N/A   Clear
9:15 AM 32.9 °F 26.7 °F 28.9 °F 85% 29.92 in 10.0 mi WSW 6.9 mph - N/A   Clear
9:35 AM 33.3 °F 26.4 °F 29.1 °F 85% 29.93 in 10.0 mi WSW 8.1 mph - N/A   Light Drizzle
9:55 AM 33.4 °F 25.9 °F 29.5 °F 85% 29.95 in 10.0 mi WSW 9.2 mph - N/A Rain Light Rain
10:15 AM 33.8 °F 25.8 °F 29.3 °F 84% 29.95 in 10.0 mi West 10.4 mph - N/A   Clear
10:35 AM 34.2 °F 27.5 °F 29.5 °F 83% 29.95 in 10.0 mi WSW 8.1 mph - N/A   Clear
10:55 AM 34.2 °F 27.5 °F 29.3 °F 82% 29.96 in 10.0 mi West 8.1 mph - N/A   Clear
11:15 AM 34.7 °F 27.5 °F 29.5 °F 81% 29.96 in 10.0 mi West 9.2 mph - N/A   Clear
11:35 AM 34.7 °F 26.9 °F 29.8 °F 82% 29.97 in 10.0 mi WSW 10.4 mph - N/A   Clear
11:55 AM 34.7 °F 26.9 °F 30.2 °F 84% 29.97 in 10.0 mi WSW 10.4 mph - N/A   Clear
12:15 PM 34.9 °F 28.3 °F 30.0 °F 82% 29.97 in 10.0 mi WSW 8.1 mph - N/A   Clear
12:35 PM 35.1 °F 27.9 °F 30.0 °F 82% 29.97 in 10.0 mi WSW 9.2 mph - N/A   Clear
12:55 PM 35.4 °F 29.7 °F 30.2 °F 81% 29.97 in 10.0 mi WSW 6.9 mph - N/A   Clear
1:15 PM 35.6 °F 28.6 °F 30.4 °F 81% 29.99 in 10.0 mi SW 9.2 mph - N/A   Clear
1:35 PM 35.2 °F 27.6 °F 30.9 °F 84% 29.99 in 10.0 mi SW 10.4 mph - N/A   Clear
1:55 PM 35.2 °F 28.1 °F 30.6 °F 83% 30.00 in 10.0 mi WSW 9.2 mph - N/A   Clear
2:15 PM 35.2 °F 29.5 °F 30.7 °F 84% 30.01 in 10.0 mi WSW 6.9 mph - N/A   Clear
2:35 PM 35.2 °F 28.8 °F 30.7 °F 84% 30.02 in 10.0 mi SW 8.1 mph - N/A   Clear
2:55 PM 35.2 °F 28.1 °F 30.6 °F 83% 30.02 in 10.0 mi WSW 9.2 mph - N/A   Clear
3:15 PM 34.7 °F 29.6 °F 31.1 °F 87% 30.03 in 10.0 mi SSW 5.8 mph - N/A   Clear
3:35 PM 35.1 °F 30.1 °F 31.1 °F 85% 30.02 in 10.0 mi SSW 5.8 mph - N/A   Clear
3:55 PM 34.9 °F 30.8 °F 31.1 °F 86% 30.02 in 10.0 mi SSW 4.6 mph - N/A   Clear
4:15 PM 35.1 °F 32.2 °F 31.1 °F 85% 30.02 in 10.0 mi South 3.5 mph - N/A   Clear
4:35 PM 35.4 °F 32.6 °F 30.7 °F 83% 30.01 in 10.0 mi South 3.5 mph - N/A   Clear
4:55 PM 35.1 °F 31.0 °F 30.6 °F 84% 30.01 in 10.0 mi South 4.6 mph - N/A   Clear
5:15 PM 34.3 °F 30.2 °F 30.2 °F 85% 30.01 in 10.0 mi SSE 4.6 mph - N/A   Clear
5:35 PM 33.3 °F 30.2 °F 29.8 °F 87% 30.00 in 10.0 mi SSE 3.5 mph - N/A   Clear
5:55 PM 32.0 °F 28.7 °F 28.9 °F 88% 29.99 in 10.0 mi ESE 3.5 mph - N/A   Clear
6:15 PM 32.0 °F - 28.9 °F 88% 29.99 in 10.0 mi Calm Calm - N/A   Clear
6:35 PM 30.2 °F 25.4 °F 27.7 °F 90% 29.99 in 10.0 mi ESE 4.6 mph - N/A   Clear
6:55 PM 32.0 °F 27.5 °F 29.1 °F 89% 29.99 in 10.0 mi SE 4.6 mph - N/A   Clear
7:15 PM 31.8 °F 28.5 °F 28.8 °F 88% 30.00 in 10.0 mi ESE 3.5 mph - N/A   Clear
7:35 PM 32.0 °F 27.5 °F 29.1 °F 89% 30.00 in 10.0 mi SE 4.6 mph - N/A   Clear
7:55 PM 32.5 °F 27.1 °F 29.7 °F 89% 29.99 in 10.0 mi SE 5.8 mph - N/A   Clear
8:15 PM 32.0 °F 27.5 °F 29.3 °F 90% 29.99 in 10.0 mi SE 4.6 mph - N/A   Clear
8:35 PM 32.0 °F 27.5 °F 29.3 °F 90% 29.99 in 10.0 mi SE 4.6 mph - N/A   Clear
8:55 PM 32.0 °F 27.5 °F 29.3 °F 90% 29.99 in 10.0 mi SE 4.6 mph - N/A   Clear
9:15 PM 32.0 °F 28.7 °F 29.3 °F 90% 29.99 in 10.0 mi ESE 3.5 mph - N/A   Clear
9:35 PM 32.0 °F 27.5 °F 29.8 °F 92% 29.97 in 10.0 mi ESE 4.6 mph - N/A   Clear
9:55 PM 32.2 °F 27.7 °F 29.8 °F 91% 29.99 in 10.0 mi SE 4.6 mph - N/A   Scattered Clouds
10:35 PM 32.2 °F 26.7 °F 29.8 °F 91% 29.98 in 10.0 mi ESE 5.8 mph - N/A   Mostly Cloudy
10:55 PM 32.0 °F 25.6 °F 29.8 °F 92% 29.96 in 10.0 mi ESE 6.9 mph - N/A   Scattered Clouds
11:15 PM 32.2 °F 25.8 °F 29.8 °F 91% 29.95 in 10.0 mi ESE 6.9 mph - N/A   Clear
11:35 PM 32.5 °F 27.1 °F 30.0 °F 90% 29.94 in 10.0 mi ESE 5.8 mph - N/A   Clear
11:55 PM 32.9 °F 29.8 °F 30.2 °F 90% 29.94 in 10.0 mi ESE 3.5 mph - N/A   Clear